Location: Baumgartsau
(48.4586°N, 14.0864°E)
Time: 08:11:31
(UTC+00:00)

Daily predictions for brighter satellites

Satellite Brightness Start Highest point End
(mag) Time Altitude Azimuth Time Altitude Azimuth Time Altitude Azimuth
IRS-1A Rocket 4.4 18:06:00 10° SSE 18:11:42 69° ENE 18:17:32 10° NNW
SJ-11-01 4.3 18:09:46 10° SSE 18:14:30 84° ENE 18:19:16 10° NNW
ATLAS 2AS CENTAUR R/B 3.0 18:08:59 10° NW 18:16:42 89° NE 18:23:45 10° SE
STARLINK-1192 4.3 18:12:53 10° WNW 18:16:56 50° NNE 18:20:58 10° E
SeaSat 1 2.4 18:13:50 10° NNE 18:18:49 81° ESE 18:23:45 10° SSW
STARLINK-1234 2.9 18:17:13 10° WNW 18:20:21 81° NNE 18:23:28 10° ESE
STARLINK-1209 2.9 18:17:41 10° WNW 18:20:49 85° NNE 18:23:56 10° ESE
STARLINK-1233 3.0 18:18:05 10° WNW 18:21:13 67° NNE 18:24:21 10° ESE
STARLINK-1212 3.0 18:18:33 10° WNW 18:21:41 67° NNE 18:24:48 10° ESE
ATLAS 5 CENTAUR R/B 2.0 18:17:52 10° S 18:21:42 38° ESE 18:25:58 10° NE
STARLINK-1244 4.2 18:17:58 10° WNW 18:22:01 51° NNE 18:26:05 10° E
STARLINK-1105 3.0 18:18:59 10° WNW 18:22:07 68° NNE 18:25:15 10° ESE
STARLINK-1206 3.0 18:19:27 10° WNW 18:22:34 68° NNE 18:25:41 10° ESE
STARLINK-1247 3.0 18:19:55 10° WNW 18:23:02 68° NNE 18:26:09 10° ESE
STARLINK-1227 3.0 18:20:19 10° WNW 18:23:27 69° NNE 18:26:36 10° ESE
STARLINK-1218 3.0 18:20:49 10° WNW 18:23:56 69° NNE 18:27:03 10° ESE
H-2A R/B 2.0 18:19:00 10° SSE 18:24:10 78° ENE 18:29:13 10° NNW
Cosmos 1603 4.2 18:18:40 10° SW 18:24:15 65° WNW 18:29:52 10° NNE
COSMOS 2455 3.1 18:18:27 10° NNW 18:24:23 56° NE 18:30:18 10° SE
STARLINK-1226 3.0 18:21:15 10° WNW 18:24:23 70° NNE 18:27:30 10° ESE
STARLINK-1254 3.0 18:21:40 10° WNW 18:24:49 70° NNE 18:27:56 10° ESE
STARLINK-1215 3.0 18:22:10 10° WNW 18:25:18 71° NNE 18:28:22 10° ESE
STARLINK-1231 3.0 18:22:37 10° WNW 18:25:45 71° NNE 18:28:48 10° ESE
STARLINK-1232 2.9 18:23:31 10° WNW 18:26:39 72° NNE 18:29:41 11° ESE
STARLINK-1138 4.2 18:22:52 10° WNW 18:26:56 52° NNE 18:31:00 10° E
STARLINK-1217 2.9 18:23:59 10° WNW 18:27:06 72° NNE 18:30:07 11° ESE
STARLINK-1208 2.9 18:24:23 10° WNW 18:27:33 73° NNE 18:30:33 11° ESE
Abrixas rocket 2.0 18:24:48 10° W 18:27:45 66° SSW 18:30:32 11° ESE
STARLINK-1229 2.9 18:24:52 10° WNW 18:28:00 73° NNE 18:30:58 11° ESE
STARLINK-1271 2.9 18:25:19 10° WNW 18:28:27 74° NNE 18:31:25 11° ESE
STARLINK-1270 2.9 18:25:47 10° WNW 18:28:55 74° NNE 18:31:51 11° ESE
STARLINK-1154 2.9 18:26:14 10° WNW 18:29:22 75° NNE 18:32:17 11° ESE
STARLINK-1197 2.9 18:27:08 10° WNW 18:30:15 76° NNE 18:33:09 12° ESE
STARLINK-1189 2.9 18:27:34 10° WNW 18:30:42 76° NNE 18:33:34 12° ESE
STARLINK-1198 2.9 18:28:03 10° WNW 18:31:10 77° NNE 18:34:01 12° ESE
Cosmos 1140 Rocket 3.8 18:26:34 10° S 18:31:24 42° ESE 18:36:15 10° NE
STARLINK-1188 2.9 18:28:28 10° WNW 18:31:36 77° NNE 18:34:26 12° ESE
STARLINK-1143 4.1 18:27:51 10° WNW 18:31:56 54° NNE 18:36:00 10° E
STARLINK-1235 2.9 18:29:08 10° WNW 18:32:17 88° SSW 18:35:09 12° ESE
STARLINK-1187 2.9 18:29:32 10° WNW 18:32:43 85° NNE 18:35:33 12° ESE
Ariane Rocket 3.2 18:28:22 10° SSE 18:33:26 78° WSW 18:38:32 10° NNW
STARLINK-1199 2.9 18:30:25 10° WNW 18:33:34 79° NNE 18:36:21 13° ESE
STARLINK-1191 2.9 18:30:52 10° WNW 18:34:01 80° NNE 18:36:47 13° ESE
STARLINK-1210 2.9 18:31:20 10° WNW 18:34:29 80° NNE 18:37:13 13° ESE
STARLINK-1221 2.9 18:31:46 10° WNW 18:34:56 81° NNE 18:37:40 13° ESE
STARLINK-1219 2.9 18:32:13 10° WNW 18:35:23 81° NNE 18:38:06 13° ESE
STARLINK-1222 2.9 18:32:40 10° WNW 18:35:49 82° NNE 18:38:31 13° ESE
STARLINK-1211 2.9 18:33:08 10° WNW 18:36:17 82° NNE 18:38:58 13° ESE
STARLINK-1214 2.9 18:33:34 10° WNW 18:36:43 83° NNE 18:39:24 14° ESE
STARLINK-1241 4.0 18:32:52 10° WNW 18:36:58 56° NNE 18:40:49 11° E
STARLINK-1245 2.8 18:34:03 10° WNW 18:37:11 83° NNE 18:39:48 14° ESE
STARLINK-1238 2.9 18:34:28 10° WNW 18:37:38 84° NNE 18:40:15 14° ESE
ERBS 3.4 18:35:23 10° NW 18:38:32 35° NNE 18:41:22 12° E
STARLINK-1205 2.8 18:35:24 10° WNW 18:38:33 85° NNE 18:41:07 14° ESE
APEX 4.4 18:32:11 10° NNW 18:38:44 79° WSW 18:44:00 10° SSE
Meteor 1-16 Rocket 4.3 18:33:21 10° SSW 18:38:47 85° WNW 18:44:28 10° N
STARLINK-1204 2.8 18:35:52 10° WNW 18:39:00 85° NNE 18:41:33 14° ESE
CZ-2C R/B 2.9 18:34:11 10° SSE 18:39:02 87° WSW 18:43:48 10° NNW
Cosmos 614 Rocket 3.9 18:34:01 10° SSW 18:39:14 77° ESE 18:44:27 10° NNE
STARLINK-1239 4.0 18:37:50 10° WNW 18:41:57 58° NNE 18:45:35 13° E
MONITOR-E 3.9 18:39:49 10° S 18:42:26 74° WSW 18:45:06 10° NNW
ATLAS CENTAUR R/B 3.6 18:40:50 10° N 18:42:41 13° NNE 18:44:28 10° NE
STARLINK-29 3.2 18:40:46 10° SW 18:43:52 49° SSE 18:46:59 10° ENE
Cosmos 1190 Rocket 4.0 18:40:03 10° S 18:45:16 62° ESE 18:50:30 10° NNE
SJ-6B 2.9 18:41:25 10° SSE 18:45:33 86° ENE 18:49:42 10° NNW
Resurs 1-3 4.0 18:41:48 10° SE 18:45:59 46° ENE 18:50:12 10° N
Aureole 1 Rocket 4.0 18:39:08 10° SSW 18:46:28 78° ESE 18:52:07 10° NNE
STARLINK-1240 3.9 18:42:49 10° WNW 18:46:56 60° NNE 18:50:22 14° E
Cosmos 1300 3.6 18:44:05 10° SSE 18:47:24 29° E 18:50:45 10° NNE
BREEZE-M DEB (TANK) 3.7 18:41:56 10° WNW 18:48:35 66° SSW 18:50:46 17° SE
STARLINK-60 3.0 18:48:10 10° WSW 18:51:27 81° NNW 18:54:45 10° ENE
SL-24 R/B 3.9 18:47:42 10° NNE 18:51:36 49° E 18:55:11 10° S
STARLINK-1216 3.9 18:47:47 10° WNW 18:51:55 63° NNE 18:55:08 16° E
CZ-2C R/B 3.8 18:49:49 10° NNE 18:54:27 55° E 18:58:58 10° S
STARLINK-1237 3.8 18:52:45 10° WNW 18:56:54 66° NNE 18:59:54 18° E
Cosmos 2058 Rocket 3.0 18:55:18 10° S 18:59:48 76° E 19:04:19 10° NNE
STARLINK-1202 3.8 18:57:45 10° WNW 19:01:54 69° NNE 19:04:42 20° ESE
Cosmos 1726 Rocket 4.0 18:58:05 10° SSW 19:02:29 68° WNW 19:06:57 10° N
SL-08 RB Rocket 3.9 18:58:00 10° S 19:02:35 77° WSW 19:07:14 10° NNW
Cosmos 1461 3.8 18:59:13 10° NW 19:03:38 52° WSW 19:08:01 11° SSE
STARLINK-1228 3.5 19:01:12 10° WNW 19:04:00 41° SW 19:05:31 22° SSE
DMSP B5D2-2 4.2 19:00:28 10° NNE 19:05:37 55° E 19:10:44 10° S
Cosmos 921 Rocket 3.0 19:01:36 10° NNW 19:05:48 81° WSW 19:09:43 12° SSE
Cosmos 2341 Rocket 4.1 19:00:20 10° N 19:06:44 69° E 19:13:06 10° SSE
SL-4 R/B 2.0 19:04:38 10° W 19:08:00 60° NNW 19:10:56 13° ENE
CZ-4C R/B 4.0 19:04:28 10° NW 19:10:23 32° NNE 19:16:38 12° E
Cosmos 407 Rocket 3.7 19:05:47 10° SSW 19:10:54 71° WNW 19:16:03 10° NNE
Cosmos 1908 4.3 19:07:11 10° SSW 19:10:57 49° WNW 19:14:46 10° N
Cosmos 1340 Rocket 3.0 19:07:21 10° SSW 19:11:23 78° W 19:15:26 10° N
STARLINK-1246 3.6 19:07:42 10° WNW 19:11:52 76° NNE 19:14:15 24° ESE
Cosmos 1408 4.5 19:10:03 10° NNE 19:12:18 15° ENE 19:12:35 15° ENE
RESURS DK-1 3.9 19:09:14 10° N 19:12:36 23° NE 19:14:21 18° E
STARLINK-1201 3.2 19:09:54 10° WNW 19:13:08 58° SSW 19:14:33 29° SE
Cosmos 2228 4.3 19:09:21 10° SSW 19:13:28 44° WNW 19:17:40 10° N
Cosmos 676 Rocket 3.9 19:09:15 10° S 19:14:28 67° ESE 19:19:42 10° NNE
COSMOS 2406 4.2 19:13:01 20° SE 19:14:44 24° ESE 19:19:09 10° NE
STARLINK-1224 3.6 19:12:43 10° WNW 19:16:53 79° NNE 19:19:04 27° ESE
Cosmos 2218 Rocket 4.2 19:11:49 10° N 19:17:54 53° ENE 19:22:17 19° SE
STARLINK-1203 3.6 19:14:51 10° WNW 19:19:04 86° NNE 19:21:13 28° ESE
MetOp-A 4.3 19:14:07 10° S 19:19:29 78° WSW 19:24:52 10° NNW
Cosmos 2058 3.4 19:15:44 10° N 19:19:38 40° ENE 19:21:09 28° ESE
Cosmos 220 Rocket 4.1 19:15:36 10° NNW 19:19:54 61° ENE 19:22:11 27° SE
Resurs 01 Rocket 1.6 19:17:44 19° SSE 19:20:51 73° ENE 19:25:16 10° N
STARLINK-1225 3.6 19:17:42 10° WNW 19:21:52 83° NNE 19:23:51 30° ESE
MOS 1 Rocket 3.6 19:16:47 10° NNE 19:22:12 72° E 19:27:39 10° S
CZ-2C R/B 2.5 19:18:22 10° NNE 19:23:32 67° ESE 19:28:43 10° S
STARLINK-52 2.8 19:21:00 10° WSW 19:24:13 87° SSE 19:25:57 25° ENE
BREEZE M DEB (TANK) 3.3 19:23:30 10° SW 19:26:45 46° SE 19:35:31 10° ENE
STARLINK-1230 3.5 19:22:40 10° WNW 19:26:50 88° NNE 19:28:37 33° ESE
Cosmos 1812 Rocket 3.9 19:25:20 26° SSE 19:27:17 43° E 19:31:24 10° NNE
SPOT 3 Rocket 4.0 19:23:27 10° S 19:28:36 61° WSW 19:33:46 10° NNW
Cosmos 1697 Rocket 3.7 19:25:05 10° NNW 19:30:08 32° NE 19:32:44 22° E
SL-8 Rocket 4.0 19:23:54 10° N 19:30:16 75° E 19:35:13 17° SSE
Cosmos 2151 4.2 19:27:03 10° NNE 19:30:30 24° ENE 19:30:59 23° E
STARLINK-1243 3.5 19:27:38 10° WNW 19:31:48 88° SSW 19:33:24 37° ESE
FALCON 9 DEB 3.1 19:29:04 10° WSW 19:32:34 84° NNW 19:34:32 24° ENE
Iridium 2 3.6 19:33:27 32° SSE 19:35:03 63° E 19:38:51 10° N
Cosmos 2181 Rocket 3.9 19:29:44 10° S 19:35:56 71° E 19:42:05 10° NNE
Cosmos 1954 Rocket 4.0 19:30:51 10° SSW 19:36:05 86° WNW 19:41:21 10° NNE
STARLINK-1236 3.5 19:32:37 10° WNW 19:36:47 83° SSW 19:38:11 41° SE
Cosmos 1741 Rocket 4.2 19:41:05 23° SSE 19:44:05 47° ESE 19:49:10 10° NNE
Cosmos 2366 rocket 3.9 19:38:13 10° N 19:44:24 76° E 19:48:11 25° SSE
Cosmos 1076 Rocket 3.4 19:40:29 10° N 19:44:47 76° E 19:46:20 38° SSE
Meteor 2-1 Rocket 4.4 19:41:06 20° SSE 19:45:05 57° E 19:50:55 10° NNE
STARLINK-1269 3.6 19:42:34 10° WNW 19:46:43 74° SSW 19:47:44 49° SE
Landsat 7 4.1 19:46:17 38° ESE 19:47:43 52° ENE 19:52:21 10° N
Cosmos 1959 Rocket 4.4 19:42:17 10° N 19:48:38 83° E 19:52:35 24° SSE
Cosmos 1656 3.8 19:43:28 10° NNW 19:49:09 64° ENE 19:51:23 36° SE
Cosmos 1763 Rocket 3.4 19:44:25 10° NNW 19:49:38 69° ENE 19:51:29 39° SE
SL-16 R/B 4.4 19:48:14 10° N 19:50:57 13° NNE 19:53:39 10° ENE
STARLINK-1200 3.6 19:47:33 10° WNW 19:51:42 69° SSW 19:52:31 52° SSE
SPOT 1/Viking Rocket 3.8 19:50:07 37° ESE 19:51:49 52° ENE 19:56:54 10° N
Cosmos 540 Rocket 4.1 19:48:21 10° N 19:53:13 40° ENE 19:54:31 34° E
Cosmos 2208 Rocket 4.5 19:49:06 10° NNW 19:54:08 46° ENE 19:55:31 37° E
Cosmos 1455 3.3 19:56:33 30° ENE 19:56:33 30° ENE 19:59:03 10° NNE
STARLINK-1192 3.7 19:52:32 10° WNW 19:56:39 65° SSW 19:57:18 55° SSE
Cosmos 2322 Rocket 4.5 19:55:25 10° N 19:57:54 13° NNE 20:00:24 10° ENE
Iridium 4 Rocket 2.8 19:53:57 10° N 19:58:09 79° E 19:59:06 52° SSE
USA 234 3.5 19:52:37 10° ENE 19:58:49 43° SE 20:04:59 10° SSW
Cosmos 1980 Rocket 3.3 19:55:21 10° NNW 20:00:18 30° NE 20:02:02 26° E
Cosmos 1174 4.3 19:56:57 10° NW 20:01:07 67° WSW 20:02:39 42° S
Cosmos 1892 2.6 19:57:45 10° N 20:01:41 89° SW 20:02:13 65° S
STARLINK-1244 3.7 19:57:37 10° WNW 20:01:43 60° SSW 20:02:10 56° S
Abrixas rocket 4.3 20:00:48 10° W 20:02:07 17° WSW 20:02:07 17° WSW
Cosmos 1814 Rocket 4.4 19:59:29 10° NNW 20:04:42 49° ENE 20:05:54 41° E
Cosmos 1825 3.0 20:02:39 10° N 20:05:39 37° NE 20:05:39 37° NE
ATLAS 5 CENTAUR R/B 3.2 20:02:19 10° WSW 20:06:19 37° NW 20:10:52 10° NNE
STARLINK-1138 3.8 20:02:32 10° WNW 20:06:36 56° SW 20:06:52 55° SSW
Cosmos-2242 3.4 20:08:41 46° ENE 20:08:41 46° ENE 20:12:27 10° NNE
COSMOS 2455 4.2 20:04:48 10° NW 20:10:03 32° WSW 20:13:57 16° SSW
STARLINK-1143 3.9 20:07:31 10° WNW 20:11:33 52° SW 20:11:39 52° SSW
Cosmos 1356 Rocket 3.5 20:13:46 60° ENE 20:13:46 60° ENE 20:17:38 10° NNE
Cosmos 489 Rocket 4.4 20:08:12 10° NNW 20:14:27 79° ENE 20:16:28 45° SE
ERBS 3.4 20:11:42 10° WNW 20:14:20 38° WSW 20:14:20 38° WSW
STARLINK-1241 4.1 20:12:33 10° WNW 20:16:28 48° SW 20:16:28 48° SW
STARLINK-29 4.1 20:16:58 10° W 20:19:44 42° NW 20:19:44 42° NW
SAR-Lupe-2 4.3 20:16:58 10° N 20:20:27 50° WNW 20:21:14 41° WSW
IGS 5A 3.4 20:20:27 74° SSW 20:20:45 80° WSW 20:24:55 10° NNW
STARLINK-1239 4.3 20:17:32 10° WNW 20:21:14 44° SW 20:21:14 44° SW
ATLAS CENTAUR R/B 1.8 20:18:46 10° NNW 20:22:10 46° NNE 20:22:10 46° NNE
Spot 2 Rocket 3.9 20:22:15 37° SSW 20:24:07 59° WSW 20:29:10 10° NNW
Cosmos 1821 Rocket 4.0 20:18:42 10° N 20:25:05 66° ENE 20:26:40 50° SE
USA 32 3.9 20:20:07 10° N 20:25:24 85° E 20:26:23 60° SSE
Cosmos 1934 Rocket 4.4 20:20:11 10° N 20:26:07 43° ENE 20:26:56 41° E
STARLINK-1240 4.5 20:22:32 10° WNW 20:26:01 40° SW 20:26:01 40° SW
Cosmos 1850 Rocket 4.0 20:24:21 19° SSW 20:28:03 76° WNW 20:33:16 10° NNE
Cosmos 2360 4.4 20:22:42 10° NNW 20:28:19 56° NE 20:29:15 50° E
Cosmos 841 Rocket 3.4 20:23:31 10° NNW 20:28:50 82° ENE 20:29:32 67° SE
Terra 2.1 20:29:53 53° ENE 20:29:53 53° ENE 20:34:29 10° N
Mayak 1.1 20:27:46 10° NE 20:28:24 13° NE 20:28:24 13° NE
SPOT 5 2.6 20:31:40 69° NE 20:31:40 69° NE 20:35:44 10° N
Cosmos 2278 3.9 20:26:06 10° NNW 20:31:41 56° ENE 20:32:29 51° E
Cosmos 2082 Rocket 3.4 20:34:09 27° ENE 20:34:09 27° ENE 20:37:14 10° NE
Meteor 2-10 Rocket 3.4 20:33:52 64° S 20:34:43 83° E 20:40:12 10° NNE
Cosmos 1833 Rocket 2.7 20:39:02 59° E 20:39:02 59° E 20:44:11 10° NE
CARTOSAT-1 3.6 20:39:31 77° NNW 20:39:31 77° NNW 20:43:33 10° NNW
ERS-1 Rocket 3.0 20:47:01 66° SW 20:47:27 70° WSW 20:52:30 10° NNW
Cosmos 1408 3.9 20:44:04 10° NNW 20:46:55 39° WNW 20:46:55 39° WNW
SL-4 R/B 3.4 20:44:30 10° WNW 20:46:33 31° NW 20:46:33 31° NW
RESURS DK-1 3.3 20:46:52 10° NW 20:50:15 44° W 20:50:15 44° W
Cosmos 1766 Rocket 3.9 20:48:47 10° NNW 20:52:50 64° WNW 20:52:50 64° WNW
Cosmos 1570 Rocket 4.4 20:48:44 10° NNW 20:53:57 53° WSW 20:54:32 51° SW
BREEZE M DEB (TANK) 4.1 20:49:47 10° W 20:53:25 36° W 20:53:25 36° W
Okean 3 Rocket 4.1 20:50:25 10° NNW 20:54:34 55° W 20:54:34 55° W
Resurs 01 Rocket 4.3 20:55:38 10° WSW 20:57:52 14° W 21:00:06 10° WNW
COSMOS 2406 3.5 20:54:52 22° SW 20:58:34 64° WNW 21:04:16 10° NNE
CZ-4C R/B 2.9 20:52:52 10° NW 20:59:57 80° NE 21:01:49 56° ESE
Cosmos 2151 4.3 21:04:03 10° NNW 21:07:34 34° W 21:07:34 34° W
Cosmos 1697 Rocket 3.1 21:08:53 10° NW 21:14:23 53° WSW 21:14:29 53° WSW
Cosmos 2369 4.0 21:09:01 10° NW 21:14:31 54° WSW 21:14:33 54° WSW
SL-16 R/B 2.9 21:31:03 10° NNW 21:36:11 47° NE 21:36:11 47° NE
Cosmos 2360 Rocket 3.7 21:32:19 10° N 21:37:00 26° NE 21:37:32 25° NE
Thor Agena Rocket 4.4 21:32:54 10° NNE 21:36:20 43° NNE 21:36:20 43° NNE
USA 234 3.3 21:35:35 10° NE 21:42:07 74° NNW 21:48:38 10° WSW
Cosmos 2322 Rocket 2.9 21:38:06 10° NNW 21:43:04 44° NE 21:43:04 44° NE
Cosmos 2221 4.2 21:46:37 31° N 21:46:37 31° N 21:48:57 10° N
Cosmos 1980 Rocket 2.8 21:39:08 10° NW 21:43:48 51° W 21:43:48 51° W
ASTEX 1 4.4 21:50:00 42° WNW 21:50:00 42° WNW 21:53:52 10° NNW
Cosmos 2333 Rocket 4.3 21:54:47 10° N 21:58:41 18° NE 22:00:26 16° ENE
Cosmos 1727 Rocket 4.2 22:05:51 67° NNE 22:05:51 67° NNE 22:11:21 10° N
Mayak 0.8 22:02:50 10° N 22:04:58 26° NNW 22:04:58 26° NNW
Terra 3.9 22:08:45 20° WNW 22:08:45 20° WNW 22:11:31 10° NW
Cosmos 2082 Rocket 3.1 22:15:56 44° WNW 22:16:08 44° NW 22:21:34 10° NNE
Cosmos 1802 Rocket 4.4 22:13:00 10° N 22:18:13 55° NE 22:18:13 55° NE
Cosmos 2100 Rocket 4.2 22:15:19 10° N 22:20:40 66° N 22:20:40 66° N
Cosmos 1833 Rocket 4.4 22:20:38 22° W 22:22:57 29° NW 22:27:49 10° NNE
Cosmos 2173 Rocket 4.2 22:21:11 10° N 22:26:16 63° N 22:26:16 63° N
Cosmos 2219 Rocket 3.8 22:29:27 10° N 22:34:07 26° NE 22:34:42 26° NE
CZ-4C R/B 4.1 22:41:54 10° NW 22:46:59 30° W 22:46:59 30° W
COSMOS 2428 3.9 22:58:27 10° NNW 23:03:37 37° NE 23:03:37 37° NE
Cosmos 839 Rocket 4.3 23:14:56 64° NE 23:14:56 64° NE 23:20:48 10° NE
SL-16 R/B 3.9 23:15:30 10° NW 23:18:02 23° WNW 23:18:02 23° WNW
Cosmos 2360 Rocket 3.3 23:15:54 10° NNW 23:19:17 37° NW 23:19:17 37° NW
CZ-2D R/B 4.4 23:19:07 10° NE 23:21:40 15° E 23:21:40 15° E
USA 234 4.2 23:18:33 10° ENE 23:24:41 44° N 23:30:49 10° WNW
Cosmos 2322 Rocket 3.9 23:22:24 10° NW 23:24:52 23° WNW 23:24:52 23° WNW
Cosmos 2333 Rocket 2.9 23:38:17 10° NNW 23:42:25 49° N 23:42:25 49° N
Cosmos 2237 Rocket 3.7 23:39:50 10° NNW 23:44:55 32° NE 23:46:25 28° ENE
Cosmos 2233 Rocket 4.4 23:42:47 10° NNW 23:47:50 56° NW 23:47:50 56° NW
SL-16 R/B 3.4 23:48:42 40° E 23:49:40 43° ENE 23:55:29 10° N
Lacrosse 5 rocket 4.2 23:54:19 12° NE 23:54:19 12° NE 23:54:40 10° NE
